Location: Unspecified
(52.1384°N, 8.6525°W)
Time: 11:11:11
(UTC+00:00)

XW-2F - Pass Details

Date: 17 January 2021
Orbit: 500 x 519 km, 97.5° (Epoch: 24 February)

Event Time Altitude Azimuth Distance (km) Brightness Sun altitude
Rises 18:11:15 0° 183° (S) 2,598 ? -11.2°
Reaches altitude 10° 18:13:25 10° 191° (S) 1,721 ? -11.5°
Maximum altitude 18:16:56 40° 262° (W) 761 ? -12.0°
Drops below altitude 10° 18:20:30 10° 333° (NNW) 1,748 ? -12.5°
Sets 18:22:43 0° 341° (NNW) 2,643 ? -12.8°
